[[[{"header":{"parameterUnit":"kt","parameterCategory":2,"dx":1,"dy":1,"la1":30.253999710083008,"la2":30.299108505249023,"lo1":-89.0895004272461,"lo2":-89.04439544677734,"nx":28,"ny":28,"refTime":"2022-10-02T21:00:00:Z","depth":0,"parameterNumber":1,"parameterNumberName":"U-component_of_WINDS"},"data":[-9.3892,-9.412,-9.4075,-9.4314,-9.4313,-9.4467,-9.4507,-9.4554,-9.4579,-9.4756,-9.4849,-9.4825,-9.483,-9.4928,-9.5025,-9.5011,-9.5055,-9.5169,-9.5133,-9.4665,-9.4597,-9.4532,-9.4474,-9.518,-9.5181,-9.5622,-9.5626,-9.5629,-9.3551,-9.3553,-9.3667,-9.3746,-9.3842,-9.3704,-9.3754,-9.3843,-9.3984,-9.4017,-9.4107,-9.4258,-9.4371,-9.4336,-9.4436,-9.4539,-9.4478,-9.4569,-9.4559,-9.4562,-9.4061,-9.4,-9.4617,-9.4617,-9.4616,-9.4616,-9.4616,-9.4616,-9.2917,-9.3057,-9.3077,-9.3199,-9.3226,-9.3279,-9.3403,-9.337,-9.3479,-9.3579,-9.3502,-9.366,-9.3682,-9.3779,-9.3799,-9.392,-9.381,-9.3894,-9.3914,-9.3936,-9.3967,-9.3333,-9.3935,-9.3933,-9.3931,-9.3929,-9.3928,0,-9.2438,-9.239,-9.2495,-9.2588,-9.2674,-9.2741,-9.2794,-9.287,-9.2748,-9.2844,-9.2977,-9.3046,-9.3181,-9.3299,-9.3382,-9.3384,-9.3248,-9.323,-9.3287,-9.3325,-9.335,-9.3337,-9.252,-9.3212,-9.3206,-9.3201,-9.3198,-9.3195,-9.1792,-9.1962,-9.196,-9.2041,-9.2057,-9.219,-9.2258,-9.2139,-9.2216,-9.2263,-9.2391,-9.2509,-9.2596,-9.2817,-9.2773,-9.2873,-9.2807,-9.3076,-9.2821,-9.2852,-9.2808,-9.2798,-9.2813,-9.3128,-9.3136,-9.3143,-9.3149,0,-9.1433,-9.1355,-9.1602,-9.1582,-9.1582,-9.1766,-9.1747,-9.1881,-9.1833,-9.201,-9.2044,-9.1969,-9.2101,-9.2013,-9.2147,-9.2096,-9.2392,-9.2326,-9.2382,-9.2364,-9.2594,-9.2573,-9.336,-9.3455,-9.2726,-9.2733,-9.2739,0,-9.085,-9.1077,-9.0947,-9.1094,-9.1341,-9.1214,-9.1462,-9.1444,-9.1461,-9.1599,-9.143,-9.1564,-9.1429,-9.155,-9.1476,-9.1702,-9.1728,-9.1701,-9.1679,-9.1716,-9.1719,-9.1753,-9.1718,-9.1624,-9.162,-9.1616,-9.1613,0,-9.0293,-9.049,-9.0729,-9.0761,-9.0763,-9.0878,-9.0884,-9.0901,-9.0969,-9.1043,-9.1085,-9.1182,-9.1234,-9.131,-9.1214,-9.1044,-9.1489,-9.1235,-9.1462,-9.1465,-9.1564,-9.1559,-9.228,-9.1608,-9.1607,-9.1606,-9.1604,0,-8.9809,-8.9888,-9.0249,-9.0243,-9.03,-9.0459,-9.0543,-9.0658,-9.0688,-9.0651,-9.0709,-9.0584,-9.0776,-9.0531,-9.0792,-9.0598,-9.0659,-9.0651,-9.0666,-9.0675,-9.0402,-9.0818,-9.1516,-9.1584,-9.0687,-9.0679,-9.0672,0,-8.9192,-8.9534,-8.9426,-8.9771,-8.9916,-8.9713,-8.9886,-8.9919,-8.9884,-9.0,-8.9959,-9.0094,-8.9892,-8.9921,-9.0063,-9.0026,-9.028,-8.999,-9.0156,-9.0163,-9.0152,-9.0793,-9.0918,-9.1373,-9.0573,-9.0584,-9.0591,0,-8.8703,-8.8703,-8.8773,-8.8802,-8.8825,-8.8946,-8.9146,-8.925,-8.9333,-8.9389,-8.9551,-8.9738,-8.9592,-8.9643,-8.9552,-8.9704,-9.0104,-8.9527,-8.9525,-8.9632,-9.0517,-9.0634,-9.0711,-9.0009,-9.0021,-9.003,-9.0513,0,-8.7984,-8.8146,-8.833,-8.8404,-8.8483,-8.8695,-8.86,-8.8695,-8.8598,-8.8555,-8.8793,-8.8797,-8.8903,-8.8968,-8.8875,-8.9253,-8.9175,-8.9019,-8.8771,-8.9194,-8.935,-8.9414,-8.8546,-8.8538,-8.8531,-8.8526,0,0,-8.7412,-8.764,-8.7516,-8.7704,-8.7763,-8.7549,-8.7784,-8.7816,-8.7888,-8.7932,-8.7794,-8.8059,-8.8069,-8.8368,-8.8492,-8.8537,-8.8594,-8.8451,-8.8994,-8.9047,-8.9095,-8.9264,-8.9333,-8.8514,-8.8512,-8.8509,-8.8507,0,-8.7129,-8.7145,-8.7379,-8.7406,-8.7443,-8.7386,-8.7443,-8.7441,-8.7424,-8.7657,-8.7476,-8.7608,-8.7826,-8.7857,-8.7903,-8.8413,-8.8268,-8.8453,-8.8758,-8.8931,-8.8993,-8.9046,-8.9226,-8.9292,-8.8491,-8.8492,-8.8493,0,-8.6628,-8.6627,-8.673,-8.6855,-8.6877,-8.7032,-8.6749,-8.6926,-8.7039,-8.6795,-8.703,-8.702,-8.7056,-8.7352,-8.7481,-8.7358,-8.7977,-8.7766,-8.7805,-8.7816,-8.7979,-8.8053,-8.8119,-8.725,-8.7246,-8.7243,0,0,-8.6396,-8.6545,-8.6506,-8.6787,-8.6813,-8.6732,-8.6805,-8.6716,-8.6753,-8.6769,-8.6752,-8.6794,-8.6917,-8.7002,-8.7113,-8.7453,-8.7448,-8.7617,-8.7675,-8.7723,-8.7762,-8.7937,-8.801,-8.7228,-8.7228,-8.7227,0,0,-8.6285,-8.625,-8.6145,-8.646,-8.6502,-8.648,-8.6655,-8.6526,-8.6617,-8.6582,-8.6438,-8.6443,-8.6718,-8.6716,-8.6528,-8.7023,-8.678,-8.6823,-8.7014,-8.7087,-8.7144,-8.7139,-8.6237,0,0,0,0,0,-8.5946,-8.6253,-8.6159,-8.6197,-8.6355,-8.6533,-8.6552,-8.6441,-8.627,-8.6411,-8.6376,-8.6217,-8.6584,-8.6414,-8.6454,-8.6665,-8.7036,-8.707,-8.7102,-8.7429,-8.7505,-8.757,0,0,0,0,0,0,-8.596,-8.6007,-8.615,-8.6144,-8.6178,-8.6521,-8.6207,-8.6185,-8.6252,-8.6218,-8.6229,-8.6217,-8.6125,-8.6386,-8.6424,-8.6626,-8.6224,-8.705,-8.7078,-8.7104,-8.7455,-8.7518,-8.7572,0,0,0,0,0,-8.5971,-8.6008,-8.6291,-8.6139,-8.6168,-8.6094,-8.6195,-8.6174,-8.6224,-8.617,-8.6153,-8.6134,-8.6134,-8.6158,-8.6408,-8.6612,-8.6197,-8.6212,-8.7068,-8.7091,-8.7111,-8.7486,0,0,0,0,0,0,-8.5978,-8.599,-8.6294,-8.6299,-8.6014,-8.6072,-8.6077,-8.6165,-8.6168,-8.6155,-8.6066,-8.604,-8.6144,-8.616,-8.618,-8.6613,-8.6175,-8.619,-8.6199,-8.7086,-8.7103,-8.7119,0,0,0,0,0,0,-8.5969,-8.5996,-8.6296,-8.6146,-8.6132,-8.6053,-8.6058,-8.6254,-8.6171,-8.6063,-8.6041,-8.6055,-8.6114,-8.6165,-8.6179,-8.649,-8.6158,-8.6173,-8.6182,-8.6189,-8.71,-8.7114,0,0,0,0,0,0,-8.5978,-8.6001,-8.6143,-8.6133,-8.612,-8.6166,-8.6224,-8.6391,-8.6043,-8.6067,-8.6008,-8.5992,-8.6123,-8.6134,-8.6179,-8.6485,-8.6488,-8.6159,-8.6168,-8.6175,-8.618,0,0,0,0,0,0,0,-8.5986,-8.5857,-8.6266,-8.6123,-8.6111,-8.6343,-8.6345,-8.6346,-8.6039,-8.6025,-8.6012,-8.5999,-8.6078,-8.6093,-8.6109,-8.6482,0,0,-8.6157,-8.6164,0,0,0,0,0,0,0,0,-8.5844,-8.5854,-8.6266,-8.6267,-8.6268,-8.6344,-8.6345,-8.6346,-8.6037,-8.6026,-8.6015,-8.6004,-8.6082,-8.6094,-8.6107,0,0,0,0,0,0,0,0,0,0,0,0,0,0,0,-8.6266,-8.6267,0,-8.6344,-8.6345,-8.6345,-8.6035,-8.6026,-8.6017,-8.6008,-8.6086,-8.6096,-8.6106,0,0,0,0,0,0,0,0,0,0,0,0,0,0,0,0,0,0,0,0,0,0,0,0,0,0,0,0,0,0,0,0,0,0,0,0,0,0,0,0,0,0,0,0,0,0,0,0,0,0,0,0,0,0,0,0,0,0,0,0,0,0,0,0,0,0,0,0,0]}],[{"header":{"parameterUnit":"kt","parameterCategory":2,"dx":1,"dy":1,"la1":30.253999710083008,"la2":30.299108505249023,"lo1":-89.0895004272461,"lo2":-89.04439544677734,"nx":28,"ny":28,"refTime":"2022-10-02T21:00:00:Z","depth":0,"parameterNumber":2,"parameterNumberName":"V-component_of_WINDS"},"data":[-6.3903,-6.3977,-6.3958,-6.4034,-6.403,-6.4078,-6.4089,-6.4101,-6.4107,-6.4162,-6.419,-6.4179,-6.4178,-6.4207,-6.4236,-6.4231,-6.4244,-6.4282,-6.4269,-6.4115,-6.4092,-6.407,-6.4051,-6.4286,-6.4286,-6.443,-6.4432,-6.4433,-6.3785,-6.3782,-6.3817,-6.3839,-6.3869,-6.382,-6.3833,-6.3861,-6.3906,-6.3914,-6.3942,-6.3989,-6.4025,-6.401,-6.4041,-6.4074,-6.4053,-6.4083,-6.408,-6.408,-6.3915,-6.3894,-6.4099,-6.4099,-6.4099,-6.4099,-6.4099,-6.4099,-6.3565,-6.3611,-6.3614,-6.3652,-6.3659,-6.3674,-6.3714,-6.37,-6.3735,-6.3766,-6.3738,-6.3789,-6.3794,-6.3824,-6.3829,-6.3868,-6.3831,-6.3859,-6.3865,-6.3872,-6.3882,-6.3671,-6.3873,-6.3872,-6.3871,-6.3871,-6.387,0,-6.3398,-6.338,-6.3414,-6.3442,-6.3469,-6.349,-6.3506,-6.3531,-6.3487,-6.3518,-6.3561,-6.3583,-6.3626,-6.3664,-6.369,-6.369,-6.3643,-6.3638,-6.3656,-6.3669,-6.3676,-6.3671,-6.34,-6.3632,-6.363,-6.3629,-6.3627,-6.3627,-6.3173,-6.3231,-6.3226,-6.3253,-6.3257,-6.3301,-6.3323,-6.3281,-6.3306,-6.332,-6.3363,-6.3401,-6.343,-6.3503,-6.3487,-6.3519,-6.3497,-6.3587,-6.3502,-6.3511,-6.3495,-6.3491,-6.3496,-6.3604,-6.3607,-6.3609,-6.3611,0,-6.3047,-6.3019,-6.3103,-6.3094,-6.3093,-6.3155,-6.3147,-6.3192,-6.3175,-6.3234,-6.3246,-6.3219,-6.3263,-6.3232,-6.3277,-6.326,-6.3358,-6.3337,-6.3355,-6.3348,-6.3424,-6.3416,-6.368,-6.3711,-6.347,-6.3472,-6.3474,0,-6.2843,-6.2922,-6.2874,-6.2925,-6.3009,-6.2965,-6.3049,-6.3043,-6.3048,-6.3094,-6.3037,-6.3082,-6.3036,-6.3077,-6.3052,-6.3127,-6.3137,-6.3127,-6.3119,-6.3131,-6.3132,-6.3144,-6.3132,-6.3102,-6.3101,-6.31,-6.3099,0,-6.2648,-6.2717,-6.2799,-6.281,-6.2809,-6.2849,-6.2851,-6.2856,-6.288,-6.2905,-6.2919,-6.2952,-6.297,-6.2996,-6.2963,-6.2906,-6.3056,-6.2971,-6.3046,-6.3047,-6.3081,-6.3079,-6.3321,-6.3097,-6.3097,-6.3096,-6.3096,0,-6.2479,-6.2506,-6.2632,-6.2628,-6.2648,-6.2704,-6.2732,-6.2773,-6.2784,-6.2771,-6.2791,-6.275,-6.2816,-6.2732,-6.2822,-6.2756,-6.2776,-6.2774,-6.2779,-6.2782,-6.2689,-6.2827,-6.3063,-6.3085,-6.2785,-6.2782,-6.278,0,-6.2261,-6.2381,-6.2345,-6.2465,-6.2516,-6.2446,-6.2507,-6.2519,-6.2508,-6.2548,-6.2535,-6.2583,-6.2515,-6.2526,-6.2574,-6.2563,-6.2649,-6.2551,-6.2607,-6.261,-6.2604,-6.282,-6.2862,-6.3014,-6.2747,-6.275,-6.2753,0,-6.209,-6.2091,-6.2115,-6.2125,-6.2136,-6.2179,-6.225,-6.2287,-6.2316,-6.2338,-6.2394,-6.2463,-6.2413,-6.2432,-6.2403,-6.2455,-6.2589,-6.2395,-6.2395,-6.2429,-6.2728,-6.2767,-6.2793,-6.2557,-6.2561,-6.2565,-6.2726,0,-6.1835,-6.1893,-6.1959,-6.1987,-6.2017,-6.2093,-6.2062,-6.2096,-6.2063,-6.205,-6.2135,-6.214,-6.2179,-6.2202,-6.2173,-6.2303,-6.2276,-6.2224,-6.214,-6.2283,-6.2335,-6.2357,-6.2064,-6.2062,-6.206,-6.2058,0,0,-6.1632,-6.1716,-6.1676,-6.1743,-6.1765,-6.1694,-6.1777,-6.179,-6.1821,-6.1837,-6.179,-6.1887,-6.1894,-6.2,-6.2042,-6.206,-6.2079,-6.2032,-6.2216,-6.2234,-6.225,-6.2307,-6.2329,-6.2054,-6.2053,-6.2052,-6.2052,0,-6.1533,-6.1543,-6.1626,-6.1638,-6.1655,-6.1637,-6.1658,-6.1662,-6.1658,-6.1742,-6.1682,-6.1729,-6.1811,-6.1824,-6.1842,-6.2018,-6.197,-6.2033,-6.2136,-6.2195,-6.2216,-6.2234,-6.2294,-6.2316,-6.2046,-6.2047,-6.2047,0,-6.1356,-6.1359,-6.1398,-6.1447,-6.1458,-6.1515,-6.1419,-6.1484,-6.1525,-6.1445,-6.153,-6.1529,-6.1546,-6.1652,-6.1698,-6.1657,-6.1872,-6.18,-6.1814,-6.1818,-6.1873,-6.1898,-6.192,-6.1627,-6.1626,-6.1624,0,0,-6.1274,-6.133,-6.1321,-6.1424,-6.1435,-6.1411,-6.1439,-6.1411,-6.1428,-6.1435,-6.1433,-6.1452,-6.1497,-6.1529,-6.1572,-6.1693,-6.1692,-6.175,-6.177,-6.1786,-6.1799,-6.1859,-6.1884,-6.1619,-6.1619,-6.1619,0,0,-6.1235,-6.1229,-6.1194,-6.131,-6.1328,-6.1327,-6.1391,-6.1348,-6.1383,-6.1371,-6.1326,-6.133,-6.1428,-6.1431,-6.1366,-6.1541,-6.1459,-6.1474,-6.1536,-6.1561,-6.158,-6.1577,-6.1269,0,0,0,0,0,-6.1119,-6.1229,-6.1198,-6.1213,-6.1278,-6.1345,-6.1352,-6.1318,-6.1259,-6.131,-6.1301,-6.1249,-6.1385,-6.1327,-6.1342,-6.1415,-6.1554,-6.1565,-6.1576,-6.1684,-6.171,-6.1732,0,0,0,0,0,0,-6.1124,-6.1143,-6.1195,-6.1199,-6.1213,-6.134,-6.1233,-6.1227,-6.1253,-6.1242,-6.1252,-6.1249,-6.1221,-6.1317,-6.1331,-6.1401,-6.1264,-6.1558,-6.1568,-6.1577,-6.1693,-6.1715,-6.1733,0,0,0,0,0,-6.1129,-6.1143,-6.1257,-6.1197,-6.121,-6.119,-6.1229,-6.1223,-6.1242,-6.123,-6.1226,-6.1214,-6.1224,-6.1234,-6.1325,-6.1395,-6.1254,-6.1259,-6.1565,-6.1573,-6.158,-6.1704,0,0,0,0,0,0,-6.1132,-6.1138,-6.1258,-6.1261,-6.1153,-6.1182,-6.1186,-6.1219,-6.1228,-6.1225,-6.119,-6.1181,-6.1228,-6.1235,-6.1243,-6.1395,-6.1245,-6.1251,-6.1254,-6.1571,-6.1577,-6.1582,0,0,0,0,0,0,-6.113,-6.1141,-6.1259,-6.1206,-6.1202,-6.1175,-6.1178,-6.1251,-6.123,-6.1187,-6.118,-6.1186,-6.1216,-6.1236,-6.1242,-6.1357,-6.1239,-6.1244,-6.1248,-6.125,-6.1576,-6.158,0,0,0,0,0,0,-6.1134,-6.1143,-6.1205,-6.1202,-6.1198,-6.1222,-6.1239,-6.1307,-6.1184,-6.1188,-6.1172,-6.1166,-6.1219,-6.1224,-6.1241,-6.1355,-6.1357,-6.1239,-6.1243,-6.1245,-6.1247,0,0,0,0,0,0,0,-6.1137,-6.1083,-6.1244,-6.1199,-6.1195,-6.1283,-6.1283,-6.1284,-6.1183,-6.1178,-6.1173,-6.1169,-6.1208,-6.1214,-6.122,-6.1353,0,0,-6.1239,-6.1241,0,0,0,0,0,0,0,0,-6.1078,-6.1081,-6.1244,-6.1245,-6.1245,-6.1283,-6.1283,-6.1284,-6.1182,-6.1178,-6.1174,-6.1171,-6.121,-6.1215,-6.122,0,0,0,0,0,0,0,0,0,0,0,0,0,0,0,-6.1244,-6.1245,0,-6.1283,-6.1283,-6.1284,-6.1181,-6.1178,-6.1175,-6.1172,-6.1211,-6.1215,-6.1219,0,0,0,0,0,0,0,0,0,0,0,0,0,0,0,0,0,0,0,0,0,0,0,0,0,0,0,0,0,0,0,0,0,0,0,0,0,0,0,0,0,0,0,0,0,0,0,0,0,0,0,0,0,0,0,0,0,0,0,0,0,0,0,0,0,0,0,0,0]}]]]